Weather History for Lincoln, NE

Change the Weather History Date:

Sunday, February 10, 2013

  Actual Average Record
Temperature  
Mean Temperature 39 °F 27 °F  
Max Temperature 45 °F 38 °F 75 °F (1999)
Min Temperature 32 °F 16 °F -16 °F (1905)
Degree Days  
Heating Degree Days 26 38  
Month to date heating degree days 309 386  
Since 1 July heating degree days 3964 4083  
Cooling Degree Days 0 0  
Month to date cooling degree days 0 0  
Year to date cooling degree days 0 0  
Moisture  
Dew Point 32 °F    
Average Humidity 78    
Maximum Humidity 100    
Minimum Humidity 56    
Precipitation  
Precipitation 0.05 in 0.03 in 0.65 in (1898)
Month to date precipitation 0.05 0.26  
Year to date precipitation 0.78 0.90  
Snow  
Snow 0.00 in 0.20 in - ()
Month to date snowfall T 2.2  
Since 1 July snowfall 11.3 16.3  
Snow Depth 0.00 in    
Sea Level Pressure  
Sea Level Pressure 29.49 in    
Wind  
Wind Speed 20 mph (SSW)    
Max Wind Speed 36 mph    
Max Gust Speed 49 mph    
Visibility 8 miles    
Events Rain    
T = Trace of Precipitation, MM = Missing Value Source: NWS Daily Summary

Daily Weather History Graph

Daily Weather History Graph

Search for Another Location

Airport:

Trip Planner

Search our weather history database for the weather conditions in past years. The results will help you decide how hot, cold, wet, or windy it might be!

Date:

Astronomy

Feb. 10, 2013 Rise Set
Actual Time 7:27 AM CST 5:56 PM CST
Civil Twilight 6:58 AM CST 6:24 PM CST
Nautical Twilight 6:26 AM CST 6:56 PM CST
Astronomical Twilight 5:54 AM CST 7:28 PM CST
Moon 7:17 AM CST (2/10) 6:48 PM CST (2/10)
Length of Visible Light 11h 25m
Length of Day
10h 28m
New Moon, 0% of the Moon is Illuminated
Feb 10
New Moon
Feb 17
First Quarter
Feb 25
Full
Mar 4
Last Quarter
Mar 11
New

Hourly Weather History & Observations

Time (CST) Temp. Windchill Dew Point Humidity Pressure Visibility Wind Dir Wind Speed Gust Speed Precip Events Conditions
12:36 AM 39.2 °F 31.6 °F 37.4 °F 93% 29.63 in 3.0 mi SSE 12.7 mph - 0.01 in Rain Light Rain
12:45 AM 39.2 °F 30.8 °F 37.4 °F 93% 29.63 in 2.5 mi SSE 15.0 mph - 0.01 in Rain Light Rain
12:54 AM 39.0 °F 31.0 °F 37.9 °F 96% 29.63 in 2.0 mi SSE 13.8 mph - 0.02 in Rain Rain
1:11 AM 39.2 °F 31.6 °F 37.4 °F 93% 29.61 in 2.5 mi SE 12.7 mph - 0.02 in Rain Light Rain
1:18 AM 39.2 °F 30.8 °F 37.4 °F 93% 29.60 in 3.0 mi SE 15.0 mph - 0.02 in Rain Light Rain
1:54 AM 39.0 °F 30.6 °F 37.9 °F 96% 29.58 in 5.0 mi SE 15.0 mph - 0.02 in   Overcast
2:32 AM 39.2 °F 31.6 °F 37.4 °F 93% 29.53 in 2.0 mi SE 12.7 mph 20.7 mph 0.00 in   Overcast
2:54 AM 39.9 °F 31.8 °F 39.0 °F 97% 29.52 in 2.5 mi SE 15.0 mph - 0.00 in   Overcast
3:15 AM 41.0 °F 33.9 °F 39.2 °F 93% 29.47 in 3.0 mi SE 12.7 mph 24.2 mph N/A   Overcast
3:54 AM 41.0 °F 32.2 °F 39.9 °F 96% 29.44 in 3.0 mi SE 18.4 mph 25.3 mph N/A   Overcast
4:54 AM 42.1 °F 33.9 °F 41.0 °F 96% 29.39 in 4.0 mi SSE 17.3 mph 25.3 mph 0.01 in   Overcast
5:46 AM 42.8 °F 35.8 °F 42.8 °F 100% 29.36 in 8.0 mi South 13.8 mph - 0.00 in   Overcast
5:54 AM 43.0 °F 36.4 °F 42.1 °F 97% 29.37 in 8.0 mi South 12.7 mph - 0.00 in   Overcast
6:27 AM 44.6 °F 37.2 °F 41.0 °F 87% 29.33 in 9.0 mi SSE 17.3 mph - N/A   Overcast
6:38 AM 44.6 °F 37.4 °F 41.0 °F 87% 29.32 in 10.0 mi SSE 16.1 mph - N/A   Overcast
6:50 AM 44.6 °F 37.2 °F 41.0 °F 87% 29.32 in 10.0 mi South 17.3 mph - N/A   Overcast
6:54 AM 44.1 °F 35.9 °F 41.0 °F 89% 29.32 in 10.0 mi South 19.6 mph - N/A   Overcast
7:05 AM 44.6 °F 37.4 °F 39.2 °F 81% 29.32 in 10.0 mi South 16.1 mph 28.8 mph N/A   Overcast
7:47 AM 42.8 °F 34.0 °F 39.2 °F 87% 29.29 in 10.0 mi South 20.7 mph - N/A   Mostly Cloudy
7:54 AM 43.0 °F 34.5 °F 39.0 °F 86% 29.30 in 10.0 mi South 19.6 mph 27.6 mph N/A   Mostly Cloudy
8:42 AM 42.8 °F 32.1 °F 35.6 °F 76% 29.28 in 10.0 mi SSW 31.1 mph 39.1 mph N/A   Mostly Cloudy
8:54 AM 39.0 °F 27.6 °F 33.1 °F 79% 29.30 in 10.0 mi SSW 27.6 mph 39.1 mph N/A   Mostly Cloudy
9:18 AM 37.4 °F 25.6 °F 30.2 °F 75% 29.29 in 10.0 mi South 26.5 mph 33.4 mph N/A   Mostly Cloudy
9:54 AM 37.0 °F 26.4 °F 30.0 °F 76% 29.30 in 10.0 mi SSW 20.7 mph 31.1 mph N/A   Overcast
10:18 AM 37.4 °F 25.9 °F 28.4 °F 70% 29.28 in 10.0 mi SSW 25.3 mph 33.4 mph N/A   Overcast
10:54 AM 37.0 °F 27.0 °F 28.9 °F 73% 29.29 in 10.0 mi SSW 18.4 mph - N/A   Overcast
11:54 AM 37.9 °F 28.2 °F 32.0 °F 79% 29.29 in 10.0 mi SSW 18.4 mph - N/A   Overcast
12:54 PM 37.9 °F 30.9 °F 35.1 °F 89% 29.30 in 7.0 mi WSW 10.4 mph - 0.00 in   Overcast
12:56 PM 37.4 °F 30.8 °F 35.6 °F 93% 29.28 in 4.0 mi WSW 9.2 mph - N/A   Overcast
1:54 PM 39.0 °F 28.8 °F 35.1 °F 86% 29.35 in 10.0 mi WNW 21.9 mph 28.8 mph 0.00 in   Overcast
2:47 PM 37.4 °F 26.9 °F 30.2 °F 75% 29.39 in 10.0 mi WNW 20.7 mph 32.2 mph N/A   Overcast
2:54 PM 37.0 °F 25.9 °F 30.0 °F 76% 29.42 in 10.0 mi WNW 23.0 mph 33.4 mph N/A   Overcast
3:29 PM 35.6 °F 23.0 °F 26.6 °F 70% 29.44 in 10.0 mi WNW 27.6 mph 34.5 mph N/A   Overcast
3:54 PM 35.1 °F 23.0 °F 25.0 °F 67% 29.50 in 10.0 mi WNW 24.2 mph 36.8 mph N/A   Overcast
4:54 PM 34.0 °F 20.3 °F 24.1 °F 67% 29.56 in 10.0 mi WNW 29.9 mph 35.7 mph N/A   Overcast
5:29 PM 33.8 °F 20.8 °F 21.2 °F 60% 29.58 in 10.0 mi WNW 26.5 mph 36.8 mph N/A   Overcast
5:54 PM 34.0 °F 21.3 °F 21.9 °F 61% 29.62 in 10.0 mi WNW 25.3 mph 35.7 mph N/A   Overcast
6:54 PM 33.1 °F 20.1 °F 21.0 °F 61% 29.68 in 10.0 mi WNW 25.3 mph 36.8 mph N/A   Overcast
7:54 PM 33.1 °F 21.5 °F 21.9 °F 64% 29.72 in 10.0 mi NW 19.6 mph 34.5 mph N/A   Mostly Cloudy
8:54 PM 33.1 °F 20.9 °F 21.9 °F 64% 29.77 in 10.0 mi NW 21.9 mph 31.1 mph N/A   Mostly Cloudy
9:38 PM 33.8 °F 22.5 °F 24.8 °F 70% 29.78 in 10.0 mi WNW 19.6 mph 28.8 mph N/A   Overcast
9:54 PM 33.1 °F 24.4 °F 25.0 °F 72% 29.82 in 10.0 mi West 11.5 mph - N/A   Overcast
10:21 PM 35.6 °F 23.7 °F 24.8 °F 65% 29.80 in 10.0 mi NW 24.2 mph 35.7 mph N/A   Overcast
10:54 PM 35.1 °F 23.0 °F 21.9 °F 59% 29.85 in 10.0 mi NW 24.2 mph 40.3 mph N/A   Overcast
11:54 PM 34.0 °F 21.8 °F 21.9 °F 61% 29.90 in 10.0 mi WNW 23.0 mph 40.3 mph N/A   Overcast